{"data":{"norad_id":57422,"epoch":"2026-05-24T06:28:49.028160Z","epoch_age_seconds":141354,"freshness":"FRESH","line1":"1 57422U 23103B   26144.27001190  .00016242  17752-5  20140-4 0  9999","line2":"2 57422  96.1620 190.7721 0023588 129.1661 231.1726 16.07670290163454","mean_motion":16.0767029,"eccentricity":0.0023588,"inclination_deg":96.162,"raan_deg":190.7721,"arg_perigee_deg":129.1661,"mean_anomaly_deg":231.1726,"bstar":2.014e-5,"rev_number":16345,"period_min":89.570604679147,"perigee_km":237.59991856296,"apogee_km":268.88411220594,"semimajor_km":6631.3790153845,"source":"CELESTRAK","updated_at":"2026-05-25T13:38:00.065701Z"}}